This demonstration page uses our WeatherBlox Daily Observations layout. Learn more.

Left ArrowRight Arrow

39.01783, -85.05884

Hourly Observations for January 19, 2020

Temp ( °F °C ) Dew Point ( °F °C ) Humidity (%) Winds ( mph kmh ) Pressure ( in mb ) Visibility ( mi km ) Precip ( " mm )
12:52 am 00:52 Cloudy 29 -1.7 21 -6.1 72 72 W 20 31 30.03 1017 10 16 0.00 0.00
1:52 am 01:52 Cloudy 26 -3.3 17 -8.3 69 69 W 20 31 30.04 1017 10 16 0.00 0.00
2:52 am 02:52 Cloudy 26 -3.3 17 -8.3 69 69 W 14 22 30.05 1018 10 16 0.00 0.00
3:52 am 03:52 Windy with Snow Likely 24 -4.4 13 -10.6 62 62 W 30 48 30.06 1018 10 16 0.00 0.00
4:16 am 04:16 Cloudy 23 -5 12 -11.1 63 63 W 25 41 30.14 1020 9 14 0.00 0.00
4:52 am 04:52 Mostly Cloudy 21 -6.1 9 -12.8 59 59 W 23 37 30.11 1020 10 16 0.00 0.00
5:52 am 05:52 Windy with Snow Likely 20 -6.7 10 -12.2 65 65 W 20 31 30.13 1020 9 14 0.00 0.00
6:22 am 06:22 Windy with Snow Likely 20 -6.7 10 -12.2 65 65 W 21 33 30.19 1022 9 14 0.00 0.00
6:52 am 06:52 Cloudy 20 -6.7 10 -12.2 65 65 W 16 26 30.15 1021 10 16 0.00 0.00
7:52 am 07:52 Cloudy with Light Snow 20 -6.7 12 -11.1 71 71 WNW 16 26 30.17 1022 6 10 0.00 0.00
8:02 am 08:02 Cloudy with Light Snow 19 -7.2 13 -10.6 77 77 NW 14 22 30.23 1024 2 3 0.00 0.00
8:30 am 08:30 Cloudy with Haze 17 -8.3 9 -12.8 70 70 WNW 17 28 30.26 1025 5 8 0.00 0.00
8:52 am 08:52 Cloudy with Light Snow 16 -8.9 8 -13.3 71 71 WNW 15 24 30.21 1023 5 8 0.00 0.00
9:52 am 09:52 Mostly Cloudy 18 -7.8 8 -13.3 65 65 WNW 18 30 30.23 1024 8 13 0.00 0.00
10:52 am 10:52 Cloudy with Light Snow 18 -7.8 9 -12.8 68 68 WNW 16 26 30.26 1025 4 6 0.00 0.00
11:52 am 11:52 Cloudy with Light Snow 18 -7.8 9 -12.8 68 68 W 15 24 30.26 1025 5 8 0.00 0.00
12:52 pm 12:52 Cloudy with Haze 18 -7.8 8 -13.3 65 65 WNW 15 24 30.27 1025 5 8 0.00 0.00
1:52 pm 13:52 Cloudy with Light Snow 17 -8.3 7 -13.9 64 64 WNW 15 24 30.29 1026 7 11 0.00 0.00
2:52 pm 14:52 Cloudy with Light Snow 16 -8.9 7 -13.9 67 67 WNW 15 24 30.31 1026 5 8 0.00 0.00
3:52 pm 15:52 Cloudy with Light Snow 16 -8.9 7 -13.9 67 67 WNW 16 26 30.33 1027 5 8 0.00 0.00
4:52 pm 16:52 Cloudy with Light Snow 16 -8.9 8 -13.3 71 71 WNW 10 17 30.36 1028 4 6 0.00 0.00
5:52 pm 17:52 Cloudy with Light Snow 15 -9.4 7 -13.9 70 70 WNW 10 17 30.39 1029 5 8 0.00 0.00
6:52 pm 18:52 Cloudy 15 -9.4 7 -13.9 70 70 WNW 13 20 30.42 1030 9 14 0.00 0.00
7:52 pm 19:52 Cloudy 15 -9.4 7 -13.9 70 70 WNW 12 19 30.44 1031 8 13 0.00 0.00
8:52 pm 20:52 Cloudy with Light Snow 14 -10 7 -13.9 73 73 WNW 13 20 30.45 1031 6 10 0.00 0.00
9:52 pm 21:52 Cloudy with Light Snow 15 -9.4 7 -13.9 70 70 NW 12 19 30.45 1031 6 10 0.00 0.00
10:52 pm 22:52 Cloudy with Light Snow 14 -10 8 -13.3 77 77 WNW 10 17 30.46 1032 6 10 0.00 0.00
11:52 pm 23:52 Cloudy with Light Snow 15 -9.4 8 -13.3 74 74 WNW 8 13 30.47 1032 8 13 0.00 0.00

Powered by AerisWeather